DW0275 Weather Reports


Display with metric or nautical units.
time (UTC)temp
F
wind
direction
speed
MPH
gust
MPH
rain 1hr
in
rain 24hr
in
rain mn
in
humidity
%
barometer
mb
20200712163820 91 122 3.0 7.0 0.00 0.01 0.00 71 1013.8
20200712163324 90 11 2.0 7.0 0.00 0.01 0.00 72 1013.8
20200712162830 90 1 2.0 7.0 0.00 0.01 0.00 70 1013.8
20200712162334 91 285 3.0 7.0 0.00 0.01 0.00 70 1013.8
20200712161838 91 17 2.0 7.0 0.00 0.01 0.00 69 1013.7
20200712161322 91 316 3.0 7.0 0.00 0.01 0.00 70 1013.7
20200712160828 90 177 2.0 7.0 0.00 0.01 0.00 72 1013.6
20200712160337 90 308 2.0 6.0 0.00 0.01 0.00 73 1013.4
20200712155822 90 283 2.0 5.0 0.00 0.01 0.00 72 1013.4
20200712155325 90 87 1.0 6.0 0.00 0.01 0.00 71 1013.5
20200712154829 90 302 2.0 7.0 0.00 0.01 0.00 70 1013.6
20200712154334 91 307 3.0 7.0 0.00 0.01 0.00 70 1013.4
20200712153839 92 138 2.0 5.0 0.00 0.01 0.00 73 1013.6
20200712153324 92 255 3.0 5.0 0.00 0.01 0.00 70 1013.6
20200712152830 92 338 1.0 6.0 0.00 0.01 0.00 70 1013.6
20200712152338 92 224 3.0 6.0 0.00 0.01 0.00 70 1013.9
20200712151840 91 281 2.0 6.0 0.00 0.01 0.00 71 1013.8
20200712151324 91 309 3.0 6.0 0.00 0.01 0.00 71 1013.9
20200712150833 91 316 2.0 6.0 0.00 0.01 0.00 72 1013.8
20200712150338 90 114 2.0 8.0 0.00 0.01 0.00 73 1013.9
20200712145823 90 130 2.0 6.0 0.00 0.01 0.00 73 1013.8
20200712145327 90 206 2.0 6.0 0.00 0.01 0.00 74 1013.9
20200712144834 90 236 2.0 6.0 0.00 0.01 0.00 73 1013.8
20200712144339 90 283 3.0 6.0 0.00 0.01 0.00 74 1013.8
20200712143823 90 99 1.0 6.0 0.00 0.01 0.00 75 1013.8
20200712143329 89 35 2.0 7.0 0.00 0.01 0.00 76 1013.8
20200712142835 90 234 3.0 7.0 0.00 0.01 0.00 74 1013.6
20200712142320 90 317 1.0 7.0 0.00 0.01 0.00 76 1013.7
20200712141829 89 281 3.0 7.0 0.00 0.01 0.00 75 1013.5
20200712141335 89 25 2.0 6.0 0.00 0.01 0.00 76 1013.7
20200712140838 89 212 2.0 8.0 0.00 0.01 0.00 77 1013.7
20200712140324 89 262 2.0 8.0 0.00 0.01 0.00 76 1013.6
20200712135832 89 130 2.0 7.0 0.00 0.01 0.00 77 1013.6
20200712135341 89 281 3.0 7.0 0.00 0.01 0.00 76 1013.5
20200712134823 89 83 2.0 5.0 0.00 0.01 0.00 75 1013.6
20200712134330 89 102 1.0 7.0 0.00 0.01 0.00 76 1013.8
20200712133833 88 84 2.0 7.0 0.00 0.01 0.00 77 1013.8
20200712133338 88 115 2.0 6.0 0.00 0.01 0.00 77 1013.9
20200712132826 88 144 2.0 7.0 0.00 0.01 0.00 77 1013.9
20200712132332 87 130 2.0 7.0 0.00 0.01 0.00 77 1014.1
20200712131838 87 66 2.0 7.0 0.00 0.01 0.00 77 1014.1
20200712131323 88 292 3.0 7.0 0.00 0.01 0.00 76 1014.1
20200712130827 88 337 2.0 8.0 0.00 0.01 0.00 76 1014.2
20200712130332 88 146 2.0 8.0 0.00 0.01 0.00 77 1014.1
20200712125837 88 200 1.0 4.0 0.00 0.01 0.00 78 1014.1
20200712125323 87 169 1.0 3.0 0.00 0.01 0.00 78 1014.0
20200712124827 87 137 1.0 3.0 0.00 0.01 0.00 79 1014.1
20200712124332 87 292 1.0 3.0 0.00 0.01 0.00 80 1014.1
20200712123836 87 88 1.0 5.0 0.00 0.01 0.00 80 1014.2
20200712123324 86 243 2.0 5.0 0.00 0.01 0.00 81 1014.3
20200712122830 86 118 1.0 3.0 0.00 0.01 0.00 82 1014.1
20200712122338 86 129 1.0 2.0 0.00 0.01 0.00 83 1014.1
20200712121821 85 105 1.0 3.0 0.00 0.01 0.00 85 1014.0
20200712121325 84 282 0.0 3.0 0.00 0.01 0.00 87 1014.0
20200712120829 83 127 0.0 3.0 0.00 0.01 0.00 88 1014.0
20200712120333 82 139 2.0 3.0 0.00 0.01 0.00 89 1013.8
20200712115819 82 186 1.0 4.0 0.00 0.01 0.00 90 1013.7
20200712115325 82 194 2.0 4.0 0.00 0.01 0.00 90 1013.5
20200712114830 81 164 1.0 3.0 0.00 0.01 0.00 91 1013.5
20200712114319 81 144 1.0 2.0 0.00 0.01 0.00 92 1013.5
20200712113825 81 160 0.0 2.0 0.00 0.01 0.00 93 1013.3
20200712113330 80 144 0.0 2.0 0.00 0.01 0.00 94 1013.4
20200712112835 80 191 1.0 2.0 0.00 0.01 0.00 94 1013.3
20200712112320 80 162 1.0 2.0 0.00 0.01 0.00 95 1013.1
20200712111825 79 156 1.0 2.0 0.00 0.01 0.00 95 1013.0
20200712111331 79 158 0.0 1.0 0.00 0.01 0.00 95 1013.0
20200712110837 79 154 0.0 1.0 0.00 0.01 0.00 95 1013.0
20200712110320 79 161 0.0 1.0 0.00 0.01 0.00 95 1012.8
20200712105827 78 161 0.0 2.0 0.00 0.01 0.00 95 1012.9
20200712105332 78 162 0.0 2.0 0.00 0.01 0.00 95 1012.8
20200712104822 78 147 0.0 1.0 0.00 0.01 0.00 95 1012.7
20200712104327 78 182 0.0 1.0 0.00 0.01 0.00 95 1012.7
20200712103831 78 219 0.0 1.0 0.00 0.01 0.00 95 1012.7
20200712103335 78 150 0.0 1.0 0.00 0.01 0.00 95 1012.5
20200712102840 78 130 0.0 1.0 0.00 0.01 0.00 95 1012.4
20200712102325 78 117 0.0 0.0 0.00 0.01 0.00 95 1012.4
20200712101831 78 139 0.0 0.0 0.00 0.01 0.00 95 1012.3
20200712101338 78 139 0.0 1.0 0.00 0.01 0.00 95 1012.3
20200712100821 79 141 0.0 1.0 0.00 0.01 0.00 95 1012.4
20200712100327 78 136 0.0 1.0 0.00 0.01 0.00 95 1012.4
20200712095837 78 139 0.0 1.0 0.00 0.01 0.00 95 1012.4
20200712095323 78 131 0.0 1.0 0.00 0.01 0.00 95 1012.4
20200712094833 78 131 0.0 1.0 0.00 0.01 0.00 94 1012.4
20200712094339 78 131 0.0 1.0 0.00 0.01 0.00 94 1012.3
20200712093823 78 131 0.0 1.0 0.00 0.01 0.00 94 1012.4
20200712093329 79 138 0.0 0.0 0.00 0.01 0.00 94 1012.3
20200712092834 79 138 0.0 1.0 0.00 0.01 0.00 94 1012.4
20200712092339 79 138 0.0 1.0 0.00 0.01 0.00 94 1012.4
20200712091825 79 179 0.0 2.0 0.00 0.01 0.00 93 1012.2
20200712091326 79 179 0.0 2.0 0.00 0.01 0.00 93 1012.3
20200712090832 79 172 0.0 1.0 0.00 0.01 0.00 93 1012.2
20200712090322 79 158 0.0 2.0 0.00 0.01 0.00 93 1012.2
20200712085827 79 156 0.0 2.0 0.00 0.01 0.00 93 1012.2
20200712085326 79 142 0.0 2.0 0.00 0.01 0.00 93 1012.3
20200712084830 79 124 0.0 2.0 0.00 0.01 0.00 92 1012.1
20200712084336 79 266 0.0 2.0 0.00 0.01 0.00 92 1012.1
20200712083821 79 195 0.0 1.0 0.00 0.01 0.00 92 1012.2
20200712083327 79 139 0.0 2.0 0.00 0.01 0.00 92 1012.2
20200712082831 79 114 1.0 2.0 0.00 0.01 0.00 92 1012.3
20200712082341 79 147 0.0 1.0 0.00 0.01 0.00 92 1012.3
20200712081823 79 136 0.0 1.0 0.00 0.01 0.00 92 1012.3
20200712081329 79 146 0.0 1.0 0.00 0.01 0.00 92 1012.4
20200712080839 79 145 0.0 1.0 0.00 0.01 0.00 92 1012.4
20200712080324 79 127 0.0 2.0 0.00 0.01 0.00 91 1012.5
20200712075829 79 18 0.0 2.0 0.00 0.01 0.00 91 1012.6
20200712075335 79 152 1.0 2.0 0.00 0.01 0.00 91 1012.6
20200712074820 79 141 0.0 1.0 0.00 0.01 0.00 91 1012.8
20200712074325 79 123 0.0 2.0 0.00 0.01 0.00 91 1012.7
20200712073831 80 139 1.0 2.0 0.00 0.01 0.00 91 1012.8
20200712073336 80 122 1.0 2.0 0.00 0.01 0.00 91 1012.8
20200712072822 80 129 1.0 2.0 0.00 0.01 0.00 91 1012.8
20200712072329 80 127 1.0 2.0 0.00 0.01 0.00 91 1012.7
20200712071819 80 119 1.0 3.0 0.00 0.01 0.00 90 1012.7
20200712071324 80 193 1.0 3.0 0.00 0.01 0.00 90 1012.7
20200712070831 80 129 1.0 3.0 0.00 0.01 0.00 90 1012.7
20200712070336 80 186 1.0 3.0 0.00 0.01 0.00 90 1012.7
20200712065821 80 124 1.0 2.0 0.00 0.01 0.00 90 1012.9
20200712065327 80 158 1.0 4.0 0.00 0.01 0.00 90 1012.9
20200712064833 80 110 1.0 3.0 0.00 0.01 0.00 90 1013.0
20200712064337 80 124 1.0 3.0 0.00 0.01 0.00 90 1013.0
20200712063823 80 138 1.0 4.0 0.00 0.01 0.00 90 1012.8
20200712063328 80 155 1.0 4.0 0.00 0.01 0.00 89 1012.7
20200712062831 80 113 1.0 4.0 0.00 0.01 0.00 89 1012.8
20200712062321 80 138 1.0 4.0 0.00 0.01 0.00 90 1012.9
20200712061824 80 134 0.0 2.0 0.00 0.01 0.00 90 1012.9
20200712061332 80 95 1.0 4.0 0.00 0.01 0.00 90 1013.0
20200712060834 80 131 1.0 3.0 0.00 0.01 0.00 90 1013.0
20200712060320 80 141 1.0 3.0 0.00 0.01 0.00 90 1013.0
20200712055827 80 127 0.0 3.0 0.00 0.01 0.00 89 1013.0
20200712055333 80 158 1.0 3.0 0.00 0.01 0.00 89 1013.0
20200712054833 80 130 1.0 3.0 0.00 0.01 0.00 89 1013.0
20200712054337 80 129 1.0 2.0 0.00 0.01 0.00 89 1013.0
20200712053821 80 135 1.0 4.0 0.00 0.01 0.00 89 1013.1
20200712053329 80 136 2.0 4.0 0.00 0.01 0.00 89 1013.2
20200712052833 80 135 1.0 4.0 0.00 0.01 0.00 88 1013.2
20200712052338 80 129 1.0 4.0 0.00 0.01 0.00 88 1013.3
20200712051822 80 147 1.0 3.0 0.00 0.01 0.00 88 1013.3
20200712051328 80 124 1.0 2.0 0.00 0.01 0.00 88 1013.4
20200712050833 80 348 1.0 2.0 0.00 0.01 0.00 88 1013.5
20200712050338 80 124 1.0 3.0 0.00 0.01 0.00 88 1013.5
20200712045824 80 141 1.0 4.0 0.00 0.01 0.00 88 1013.5
20200712045328 80 172 2.0 4.0 0.00 0.01 0.00 88 1013.4
20200712044833 80 139 1.0 4.0 0.00 0.01 0.00 87 1013.5
20200712044322 80 198 2.0 4.0 0.00 0.01 0.00 87 1013.6
20200712043824 80 150 1.0 4.0 0.00 0.01 0.00 87 1013.5
20200712043329 80 165 2.0 5.0 0.00 0.01 0.00 87 1013.7
20200712042835 80 140 1.0 4.0 0.00 0.01 0.00 87 1013.7
20200712042320 80 155 1.0 2.0 0.00 0.01 0.00 87 1014.0
20200712041826 80 101 1.0 2.0 0.00 0.01 0.00 86 1014.1
20200712041332 80 168 1.0 3.0 0.00 0.01 0.00 86 1014.0
20200712040837 80 147 1.0 3.0 0.00 0.01 0.00 86 1014.0
20200712040321 80 164 1.0 6.0 0.00 0.01 0.00 86 1014.1
20200712035825 80 128 2.0 6.0 0.00 0.01 0.01 86 1014.1
20200712035329 80 150 1.0 3.0 0.00 0.01 0.01 86 1014.0
20200712034819 80 139 1.0 4.0 0.00 0.01 0.01 86 1014.0
20200712034325 80 261 1.0 4.0 0.00 0.01 0.01 86 1014.1
20200712033830 80 205 1.0 3.0 0.00 0.01 0.01 86 1014.1
20200712033336 80 309 0.0 2.0 0.00 0.01 0.01 86 1014.2
20200712032825 80 87 0.0 3.0 0.00 0.01 0.01 86 1014.2
20200712032328 80 154 0.0 3.0 0.00 0.01 0.01 86 1014.3
20200712031832 80 268 0.0 3.0 0.00 0.01 0.01 86 1014.4
20200712031338 80 195 1.0 3.0 0.00 0.01 0.01 86 1014.5
20200712030823 80 214 0.0 3.0 0.00 0.01 0.01 86 1014.5
20200712030330 80 144 1.0 3.0 0.00 0.01 0.01 86 1014.7
20200712025837 80 167 0.0 2.0 0.00 0.01 0.01 86 1014.7
20200712025322 80 330 0.0 2.0 0.00 0.01 0.01 86 1014.7
20200712024827 80 255 0.0 2.0 0.00 0.01 0.01 85 1014.7
20200712024333 80 202 1.0 2.0 0.00 0.01 0.01 85 1014.6
20200712023819 80 148 1.0 3.0 0.00 0.01 0.01 85 1014.5
20200712023325 80 203 2.0 3.0 0.00 0.01 0.01 85 1014.5
20200712022829 80 89 1.0 3.0 0.00 0.01 0.01 85 1014.5
20200712022335 80 171 1.0 3.0 0.00 0.01 0.01 85 1014.5
20200712021820 80 122 1.0 4.0 0.00 0.01 0.01 85 1014.5
20200712021324 80 145 0.0 4.0 0.00 0.01 0.01 84 1014.4
20200712020833 80 143 1.0 3.0 0.00 0.01 0.01 84 1014.2
20200712020338 80 158 1.0 3.0 0.00 0.01 0.01 84 1014.2
20200712015822 80 184 1.0 2.0 0.00 0.01 0.01 84 1014.2
20200712015327 80 174 0.0 2.0 0.00 0.01 0.01 84 1014.2
20200712014831 80 154 0.0 2.0 0.00 0.01 0.01 84 1014.0
20200712014337 80 124 1.0 3.0 0.00 0.01 0.01 84 1013.8
20200712013822 80 155 0.0 2.0 0.00 0.01 0.01 84 1013.7
20200712013327 80 127 0.0 3.0 0.00 0.01 0.01 84 1013.7
20200712012832 80 285 1.0 5.0 0.00 0.01 0.01 83 1013.7
20200712012344 80 302 2.0 5.0 0.00 0.01 0.01 83 1013.5
20200712011826 80 214 0.0 2.0 0.00 0.01 0.01 83 1013.5
20200712011332 81 155 0.0 2.0 0.00 0.01 0.01 83 1013.4
20200712010837 81 143 0.0 2.0 0.00 0.01 0.01 83 1013.3
20200712010321 81 172 1.0 2.0 0.00 0.01 0.01 83 1013.3
20200712005827 81 80 0.0 2.0 0.00 0.02 0.01 83 1013.3
20200712005333 81 135 0.0 2.0 0.00 0.02 0.01 83 1013.1
20200712004835 81 152 0.0 3.0 0.00 0.02 0.01 83 1013.0
20200712004319 81 144 1.0 4.0 0.00 0.02 0.01 82 1013.0
20200712003824 81 208 1.0 4.0 0.00 0.02 0.01 82 1013.0
20200712003330 81 140 1.0 3.0 0.00 0.02 0.01 83 1012.9
20200712002840 81 215 1.0 4.0 0.00 0.02 0.01 82 1012.9
20200712002321 81 252 1.0 4.0 0.00 0.02 0.01 82 1012.9
20200712001825 81 193 1.0 4.0 0.00 0.02 0.01 82 1013.0
20200712001330 81 154 1.0 4.0 0.00 0.02 0.01 82 1013.0
20200712000835 81 193 1.0 3.0 0.00 0.02 0.01 81 1013.0
20200712000321 81 228 1.0 3.0 0.00 0.02 0.01 82 1012.9
20200711235826 81 21 1.0 4.0 0.00 0.03 0.01 82 1012.8
20200711235331 81 143 1.0 4.0 0.00 0.03 0.01 82 1012.8
20200711234837 81 124 0.0 4.0 0.00 0.03 0.01 83 1012.8
20200711234323 81 139 2.0 4.0 0.00 0.03 0.01 82 1012.8
20200711233831 81 160 1.0 3.0 0.00 0.03 0.01 82 1012.8
20200711233321 81 139 1.0 3.0 0.00 0.03 0.01 82 1012.8
20200711232825 82 155 0.0 2.0 0.00 0.03 0.01 82 1013.0
20200711232331 82 240 0.0 4.0 0.00 0.03 0.01 81 1013.1
20200711231838 82 131 0.0 4.0 0.00 0.03 0.01 81 1013.1
20200711231324 82 198 0.0 3.0 0.00 0.03 0.01 81 1013.0
20200711230827 82 191 1.0 3.0 0.00 0.03 0.01 81 1013.1
20200711230332 82 130 1.0 2.0 0.00 0.03 0.01 82 1013.2
20200711225818 82 114 0.0 3.0 0.00 0.03 0.01 82 1013.3
20200711225324 82 117 0.0 3.0 0.00 0.03 0.01 81 1013.3
20200711224830 82 104 1.0 3.0 0.00 0.03 0.01 81 1013.4
20200711224319 82 90 1.0 3.0 0.00 0.03 0.01 80 1013.4
20200711223829 82 141 0.0 2.0 0.00 0.03 0.01 80 1013.4
20200711223332 82 94 1.0 3.0 0.00 0.03 0.01 82 1013.0
20200711222837 82 146 0.0 3.0 0.00 0.03 0.01 83 1013.0
20200711222324 82 106 0.0 3.0 0.01 0.03 0.01 83 1013.1
20200711221826 82 290 1.0 3.0 0.01 0.03 0.01 83 1013.2
20200711221330 82 124 1.0 4.0 0.01 0.03 0.01 83 1013.1
20200711220835 82 139 1.0 4.0 0.01 0.03 0.01 83 1012.9
20200711220320 82 340 1.0 5.0 0.01 0.03 0.01 83 1013.0
20200711215822 82 236 1.0 5.0 0.01 0.03 0.01 83 1012.8
20200711215326 82 162 1.0 4.0 0.01 0.03 0.01 83 1012.8
20200711214834 82 212 1.0 3.0 0.01 0.03 0.01 83 1012.7
20200711214338 82 175 1.0 2.0 0.01 0.03 0.01 84 1012.7
20200711213825 82 144 0.0 3.0 0.01 0.03 0.01 84 1012.7
20200711213329 82 231 1.0 3.0 0.01 0.03 0.01 84 1012.7
20200711212833 82 187 1.0 3.0 0.01 0.03 0.01 85 1012.8
20200711212321 82 276 0.0 4.0 0.00 0.02 0.00 84 1012.8
20200711211825 82 181 1.0 5.0 0.00 0.02 0.00 84 1012.7
20200711211330 83 143 1.0 5.0 0.00 0.02 0.00 85 1012.6
20200711210900 83 155 1.0 5.0 0.00 0.02 0.00 85 1012.6
20200711210329 83 194 2.0 4.0 0.00 0.02 0.00 85 1012.6
20200711205827 84 110 1.0 6.0 0.00 0.02 0.00 84 1012.8
20200711205338 85 313 2.0 6.0 0.00 0.02 0.00 81 1012.9
20200711204819 86 11 3.0 7.0 0.00 0.02 0.00 78 1013.0
20200711204323 87 141 2.0 7.0 0.00 0.02 0.00 77 1013.0
20200711203827 88 115 2.0 9.0 0.00 0.02 0.00 75 1013.1
20200711203333 89 214 3.0 11.0 0.00 0.02 0.00 74 1012.9
20200711202840 89 89 4.0 11.0 0.00 0.02 0.00 73 1012.8
20200711202323 89 151 3.0 8.0 0.00 0.02 0.00 73 1012.7
20200711201828 89 189 4.0 8.0 0.00 0.02 0.00 71 1012.5
20200711201333 89 299 4.0 8.0 0.00 0.02 0.00 69 1012.5
20200711200840 89 139 3.0 15.0 0.00 0.02 0.00 69 1012.6
20200711200326 89 221 4.0 15.0 0.00 0.02 0.00 70 1012.6
20200711195832 88 268 3.0 12.0 0.00 0.02 0.00 74 1012.7
20200711195337 87 125 5.0 12.0 0.00 0.02 0.00 74 1012.4
20200711194821 87 143 5.0 11.0 0.00 0.02 0.00 77 1012.4
20200711194328 86 147 6.0 11.0 0.00 0.02 0.00 77 1012.5
20200711193832 86 145 6.0 11.0 0.00 0.02 0.00 77 1012.6
20200711193337 86 140 6.0 11.0 0.00 0.02 0.00 78 1012.7
20200711192822 86 146 4.0 10.0 0.00 0.02 0.00 78 1012.9
20200711192328 86 138 5.0 10.0 0.00 0.02 0.00 78 1013.0
20200711191833 86 238 5.0 12.0 0.00 0.02 0.00 79 1013.0
20200711191322 85 150 7.0 12.0 0.00 0.02 0.00 77 1012.9
20200711190828 86 313 4.0 10.0 0.00 0.02 0.00 76 1013.0
20200711190332 86 183 4.0 10.0 0.00 0.02 0.00 77 1012.9
20200711185840 86 262 5.0 11.0 0.00 0.02 0.00 76 1012.9
20200711185323 86 112 7.0 12.0 0.00 0.02 0.00 76 1013.1
20200711184829 86 249 4.0 11.0 0.00 0.02 0.00 77 1013.2
20200711184335 88 152 4.0 12.0 0.00 0.02 0.00 75 1013.2
20200711183839 88 142 4.0 12.0 0.00 0.02 0.00 77 1013.3
20200711183324 89 174 3.0 10.0 0.00 0.02 0.00 74 1013.3
20200711182830 89 122 3.0 10.0 0.00 0.02 0.00 75 1013.1
20200711182336 90 155 3.0 6.0 0.00 0.02 0.00 74 1013.2
20200711181825 90 103 2.0 6.0 0.00 0.02 0.00 74 1013.5
20200711181331 90 147 2.0 6.0 0.00 0.02 0.00 75 1013.6
20200711180835 90 79 1.0 6.0 0.00 0.02 0.00 76 1013.6
20200711180322 91 311 3.0 6.0 0.00 0.02 0.00 76 1013.5
20200711175827 92 119 2.0 4.0 0.00 0.02 0.00 75 1013.5
20200711175333 93 164 2.0 4.0 0.00 0.02 0.00 72 1013.3
20200711174839 93 281 1.0 3.0 0.00 0.02 0.00 73 1013.1
20200711174322 93 292 0.0 3.0 0.00 0.02 0.00 69 1013.2
20200711173829 92 283 1.0 3.0 0.00 0.02 0.00 69 1013.4
20200711173333 92 289 1.0 5.0 0.00 0.02 0.00 66 1013.4
20200711172821 93 100 1.0 5.0 0.00 0.02 0.00 67 1013.3
20200711172326 93 46 3.0 6.0 0.00 0.02 0.00 65 1013.2
20200711171831 93 359 3.0 6.0 0.00 0.02 0.00 65 1013.1
20200711171333 93 34 3.0 6.0 0.00 0.02 0.00 67 1013.1
20200711170839 94 334 2.0 5.0 0.00 0.02 0.00 67 1013.1
20200711170325 94 354 2.0 5.0 0.00 0.02 0.00 69 1013.3
20200711165830 94 305 1.0 6.0 0.00 0.02 0.00 66 1013.4
20200711165336 94 30 1.0 8.0 0.00 0.02 0.00 67 1013.5
20200711164822 94 273 2.0 8.0 0.00 0.02 0.00 68 1013.7
20200711164330 94 137 0.0 5.0 0.00 0.02 0.00 72 1013.5